Theta_e
290 289 289 289 288 288 287 286 286 286 286 286 285 285 285 285 285 284 284 283 283 282 281 281 281 280 280 280 280 279 279 279 279 278 278 278 278 277 277 277 277 277
290 289 289 289 288 288 288 287 287 286 286 286 286 286 285 285 284 284 283 283 283 282 281 281 281 280 280 280 279 279 279 278 278 279 278 277 277 277 277 277 276 276
289 289 289 288 289 288 288 287 287 286 286 286 286 285 285 285 284 284 284 283 282 282 281 281 281 280 280 280 279 279 279 278 278 278 278 277 277 277 277 276 276 276
289 289 289 289 289 288 287 286 286 286 286 285 285 285 285 285 284 283 283 283 282 282 281 281 280 280 280 279 279 279 279 278 278 278 277 277 277 277 276 276 276 276
289 289 289 289 289 288 287 286 285 285 285 285 285 284 284 284 283 283 283 283 282 281 281 280 280 280 280 279 279 278 278 278 277 277 277 276 276 276 276 276 275 275
289 289 289 289 288 288 286 286 286 285 285 284 284 284 284 284 283 283 282 282 282 281 280 280 280 280 279 279 279 278 278 277 277 277 276 276 275 276 276 275 275 274
289 289 289 289 288 287 287 286 286 285 285 285 284 284 284 283 283 283 282 282 281 281 280 280 280 279 279 279 278 278 278 277 277 276 276 275 275 275 275 275 275 274
288 288 288 287 287 287 286 286 285 285 285 284 284 284 284 283 283 283 282 282 281 281 280 280 279 279 279 278 278 277 277 277 276 276 276 275 275 274 274 275 275 274
288 287 287 286 286 286 286 286 285 285 284 284 284 283 283 283 283 283 282 282 281 281 280 280 279 279 278 278 278 277 277 276 276 276 275 274 274 274 274 274 274 273
287 287 286 286 286 287 286 286 286 285 284 284 284 283 283 283 283 282 282 281 281 280 280 279 279 279 278 278 278 277 276 276 275 275 275 275 275 274 274 274 273 273
287 287 286 286 286 286 286 286 286 285 284 283 283 283 283 282 282 282 281 281 281 280 280 279 279 278 278 277 277 277 277 276 275 275 275 275 274 274 275 273 273 272
286 286 286 286 286 286 286 286 286 285 284 283 283 283 282 282 282 281 281 281 281 280 280 279 279 278 277 277 277 276 276 275 275 275 274 274 274 274 274 273 273 272
286 286 286 286 286 286 287 286 285 285 284 283 283 283 282 281 281 281 281 281 281 280 279 279 278 278 277 277 276 275 275 275 274 274 274 273 273 273 273 273 272 272
286 286 286 287 287 286 286 285 285 284 284 283 283 283 282 281 281 281 281 281 280 280 279 279 278 277 277 276 276 275 275 274 274 273 273 272 272 272 272 272 272 271
287 286 286 286 286 286 286 285 284 284 284 283 283 282 282 282 282 281 280 279 279 279 278 278 277 277 277 276 275 275 275 274 274 273 272 272 271 271 271 271 270 270
287 286 286 285 285 285 285 285 284 284 283 283 283 282 282 281 281 280 280 279 279 278 278 277 277 277 278 280 279 275 274 274 273 272 272 271 271 270 270 270 270 270
286 286 285 285 285 285 285 285 284 284 283 282 282 281 281 280 280 279 279 279 278 278 277 277 277 277 280 282 282 280 275 273 272 272 272 271 270 270 269 270 270 270
286 286 285 285 285 285 284 284 284 283 282 281 281 280 280 280 279 279 279 278 278 278 277 277 276 279 282 283 283 282 278 273 273 272 271 271 270 270 270 270 270 270
285 285 285 284 284 284 284 283 283 282 281 280 280 280 279 278 279 279 278 278 277 277 276 276 276 280 282 283 283 282 281 276 272 272 271 271 271 270 270 271 271 271
283 284 284 284 283 283 282 282 281 281 281 280 280 279 278 278 278 278 278 277 277 277 276 276 275 280 283 283 283 283 281 277 271 272 272 271 271 271 271 272 272 272
284 284 284 283 282 282 281 281 281 280 280 280 279 279 278 278 277 277 277 277 276 276 276 275 274 280 283 283 283 283 282 278 271 272 271 271 271 272 273 273 274 274
282 283 283 282 282 280 280 281 280 280 280 279 279 278 278 278 277 277 276 276 276 275 275 274 274 280 283 284 284 284 283 274 271 271 271 271 272 273 274 275 275 275
280 280 280 280 281 280 280 280 280 279 279 279 278 278 277 277 276 276 276 275 275 274 274 273 273 279 283 284 284 284 281 272 271 271 272 272 272 274 274 275 275 275
279 279 280 278 278 279 279 280 279 279 279 278 277 277 276 276 276 275 275 275 274 274 274 273 272 277 282 284 284 284 279 272 272 272 272 273 273 274 275 275 275 277
277 277 279 278 278 278 277 278 278 278 277 276 276 276 275 275 274 274 274 273 273 273 275 274 272 275 282 283 284 284 278 273 273 272 272 273 273 274 274 274 275 276
277 277 278 278 278 276 275 277 275 275 274 274 274 274 274 274 273 273 272 272 273 273 273 274 272 273 279 284 284 284 280 274 273 273 272 272 273 273 272 272 273 274
Wind_Speed
12 12 14 13 13 12 12 12 12 12 12 11 13 13 13 13 11 14 15 13 13 13 12 12 11 11 10 10 9 8 8 9 8 8 9 9 8 9 9 9 8 7
17 15 11 11 10 11 12 14 14 14 14 13 12 11 10 10 12 13 14 14 13 14 13 12 12 12 12 11 11 11 9 9 10 6 9 10 8 9 9 9 8 6
14 14 16 17 17 17 15 12 12 12 12 13 10 10 11 10 11 12 13 14 14 14 14 13 13 13 13 12 12 11 11 11 11 9 9 11 8 9 8 8 7 8
17 18 17 17 14 13 12 11 11 11 10 10 14 12 10 10 11 13 12 13 13 14 14 14 15 14 13 13 12 11 11 11 10 9 9 7 8 8 8 8 7 6
19 17 14 14 13 11 11 13 14 14 14 14 10 11 12 11 12 13 13 13 13 13 13 14 13 13 13 12 13 11 10 10 9 10 10 10 8 8 8 8 9 9
13 15 16 15 14 13 13 14 15 14 13 12 15 12 11 13 13 14 14 14 13 12 12 12 14 13 13 13 12 11 11 10 10 11 10 10 9 7 7 8 9 9
17 16 17 15 13 13 14 14 12 13 13 14 10 13 14 14 14 15 14 14 13 13 13 13 14 14 13 12 12 12 11 11 10 11 11 9 9 9 8 9 9 9
14 12 12 10 12 13 14 13 12 13 13 11 14 14 14 15 16 14 14 14 14 14 13 13 13 13 13 13 14 13 12 10 11 12 11 10 10 11 10 9 9 9
12 11 10 12 14 13 14 14 14 13 12 14 15 13 13 14 15 15 15 15 14 14 14 14 14 14 13 14 15 15 15 13 12 13 14 13 13 13 12 10 10 9
12 12 11 13 14 15 16 16 14 13 12 14 14 12 14 13 14 15 15 16 16 15 16 16 15 14 14 13 14 15 14 14 13 13 12 12 13 12 12 12 12 10
14 13 14 15 17 15 18 17 16 15 13 15 13 13 14 13 13 14 15 16 17 18 17 16 16 15 14 14 12 11 12 12 13 13 12 12 12 12 12 12 11 11
16 14 16 18 18 17 19 17 16 15 14 13 15 16 13 14 15 14 15 18 18 17 17 17 15 16 16 15 14 12 11 11 11 11 11 11 11 10 11 11 11 11
16 16 16 17 18 19 16 13 14 14 14 14 14 15 15 15 14 16 15 16 17 16 16 17 16 15 14 14 14 13 13 13 12 11 11 10 10 10 10 10 10 10
13 15 16 17 15 12 11 11 11 11 12 12 11 14 15 15 16 16 15 14 14 15 15 15 15 15 15 15 14 15 14 14 13 13 12 10 10 9 9 10 10 10
13 13 13 13 13 12 12 13 13 13 13 13 13 14 12 14 13 13 13 13 12 13 14 14 15 16 15 16 16 16 14 14 14 13 13 12 10 10 9 9 8 8
12 11 11 10 11 14 15 15 14 14 13 14 15 16 14 13 14 14 15 16 15 14 14 14 14 13 15 23 20 16 16 13 12 12 13 12 12 11 9 9 8 8
10 11 9 11 13 12 10 11 12 12 14 14 13 13 14 14 14 16 16 16 17 17 17 15 14 12 21 25 25 23 16 14 14 13 12 11 11 12 12 11 9 8
10 9 10 12 9 12 12 11 11 11 12 13 13 13 13 12 15 17 15 15 14 15 15 15 13 14 24 25 25 25 20 13 11 11 11 11 11 11 10 10 10 9
7 8 10 10 11 10 9 9 11 12 12 13 15 14 11 14 15 13 15 14 14 16 16 14 13 18 25 26 25 25 25 17 11 11 12 11 11 11 11 10 9 9
6 7 10 11 9 8 9 10 11 14 12 10 9 9 12 12 12 15 13 14 15 15 14 13 13 18 25 26 25 26 25 19 11 12 11 11 12 11 10 10 10 10
7 8 9 8 6 7 8 10 12 10 10 10 11 13 14 14 14 14 13 13 12 11 11 12 10 20 24 26 25 26 26 18 11 10 9 9 9 10 10 9 10 9
7 8 8 5 6 6 8 10 9 10 12 10 10 9 9 8 9 10 12 12 12 12 11 11 10 22 24 25 26 25 26 13 11 11 10 10 9 10 10 9 9 10
6 6 7 6 6 7 9 9 9 10 9 8 10 10 10 11 11 11 10 11 12 12 12 11 10 19 25 25 26 27 20 11 11 10 10 11 10 11 10 10 10 10
7 6 6 5 5 8 9 8 7 5 7 7 10 10 10 10 8 8 8 10 12 13 13 12 11 17 25 25 27 29 18 14 12 11 11 11 10 10 9 10 11 17
7 6 6 6 6 7 6 7 8 8 6 6 6 6 7 7 8 9 8 8 9 11 12 12 10 14 23 25 27 28 18 13 12 11 12 11 11 10 9 8 10 14
6 6 6 5 6 5 4 5 3 4 6 7 6 6 7 7 7 8 9 8 8 9 10 10 10 11 17 27 28 29 23 14 11 13 13 13 10 11 11 9 8 10
Wind_Direction
201 199 201 197 200 198 189 189 193 194 197 195 198 200 197 199 180 184 189 183 184 183 181 178 175 176 176 175 177 174 180 183 178 176 178 174 177 172 176 175 175 174
205 202 201 201 202 199 200 194 192 193 196 197 201 193 195 185 192 187 187 186 183 186 179 178 178 177 176 177 179 178 180 180 184 179 176 180 178 175 177 174 170 163
199 200 201 201 203 202 199 191 189 194 195 199 191 192 191 183 184 191 193 190 185 183 182 180 178 180 180 181 180 182 181 181 185 181 178 183 172 177 173 165 166 174
204 204 204 208 205 201 193 188 193 193 192 188 199 192 180 184 183 187 193 193 192 188 184 180 182 180 180 181 179 186 185 187 184 171 176 173 178 171 169 165 164 168
203 204 206 209 207 199 186 192 195 195 194 198 181 182 184 179 183 186 190 194 194 192 186 185 181 181 179 180 182 182 182 182 176 176 178 180 179 172 171 165 169 174
209 207 206 205 202 196 196 198 199 195 193 187 193 181 184 182 185 187 188 190 194 193 191 188 185 183 181 180 180 185 180 180 180 177 180 181 176 176 169 172 169 175
210 205 208 204 198 198 202 205 200 195 194 195 171 187 183 185 186 189 187 189 189 191 191 192 189 185 183 178 181 183 183 182 175 180 181 179 172 174 176 173 178 178
215 213 212 202 204 201 204 202 201 200 196 180 190 191 182 186 187 184 185 185 187 191 192 194 194 190 183 180 182 182 183 179 179 180 180 179 176 181 180 180 177 175
211 210 204 203 205 206 208 204 202 200 191 192 194 188 188 188 187 184 183 183 186 188 190 192 194 192 189 186 187 184 181 181 181 182 182 179 183 185 181 174 173 178
214 212 201 204 205 208 209 208 203 200 193 198 195 185 186 192 186 184 180 183 186 187 190 192 191 191 191 193 191 186 183 182 180 185 186 186 185 180 177 177 178 173
217 207 208 208 208 206 210 207 203 199 193 196 189 193 192 184 188 184 184 183 187 189 189 190 192 189 188 191 192 189 187 181 183 184 187 188 187 183 180 177 177 181
216 207 209 210 211 212 210 205 204 201 195 194 190 193 190 192 188 187 189 191 190 189 187 187 186 188 189 188 186 182 183 185 184 186 187 187 185 183 180 180 179 176
215 211 211 211 211 213 208 201 203 200 194 197 194 194 191 192 193 191 194 191 192 186 186 184 185 186 185 185 184 183 182 182 182 185 186 185 187 183 181 180 179 175
221 217 215 215 217 216 208 202 199 198 199 196 191 197 197 195 192 195 195 193 190 187 187 181 181 183 184 184 184 183 182 183 182 182 181 183 181 182 181 182 180 177
225 221 220 217 209 204 203 201 196 195 195 192 192 198 197 196 193 192 189 192 190 188 184 183 185 187 184 184 183 185 184 181 180 180 178 177 177 179 181 178 177 177
236 232 225 215 209 208 206 198 194 192 191 194 197 196 192 189 188 190 191 190 187 187 186 187 191 191 188 185 183 180 178 177 175 179 178 177 175 175 178 179 177 175
229 227 219 217 215 210 208 203 201 197 195 196 195 192 193 189 187 190 194 190 188 187 188 192 193 191 186 186 185 179 174 174 175 177 177 175 177 175 176 176 176 175
223 219 213 220 213 214 208 203 198 195 196 193 191 191 192 187 194 196 191 189 191 189 191 192 192 187 186 186 183 180 175 172 171 170 172 175 175 176 174 172 172 169
230 220 222 219 215 213 206 199 197 198 197 192 195 195 185 192 198 187 194 191 189 191 193 191 193 185 186 184 182 180 176 168 171 167 171 175 174 174 174 172 168 168
241 230 228 224 212 202 195 197 198 204 200 195 187 179 192 196 193 196 193 192 193 192 192 190 189 185 184 184 182 180 175 167 167 168 171 173 173 174 172 168 166 167
255 242 240 233 211 202 197 202 202 201 191 193 189 192 192 193 192 194 195 193 191 189 189 190 188 184 185 184 183 179 174 161 161 165 166 168 169 170 170 163 167 166
272 261 255 239 215 205 206 208 203 198 195 187 188 194 196 189 195 192 189 189 189 185 187 188 182 186 186 185 182 178 171 156 162 164 164 164 165 169 171 168 165 163
282 270 262 243 219 213 213 208 199 200 197 183 188 192 190 193 195 190 187 184 185 187 187 186 180 189 188 185 182 177 165 153 161 161 164 165 169 169 169 169 169 169
288 273 266 249 227 221 216 212 205 196 193 179 190 189 193 194 184 185 187 186 185 189 188 183 184 189 189 186 183 182 161 160 164 165 165 165 166 168 168 172 174 176
287 272 262 253 239 233 217 209 198 194 180 166 181 178 185 172 178 184 185 185 189 188 184 183 178 188 191 190 183 182 162 162 163 166 164 169 167 165 169 166 176 183
293 278 262 248 244 238 220 213 176 152 163 169 177 177 178 177 182 183 183 185 176 180 187 184 178 186 195 192 189 187 167 163 166 166 171 168 166 166 161 171 171 180